• In Uzbekistan
  • List of Countries
  • For 7 days
  • Water Temperature
  • Satellite Maps
  • Weather Map
  • Weather Widgets
  • user-avatar
    Login

    Hourly Weather Coleraine

    Today, 19 September, Wednesday

    Time Temperature Precipitation Wind Pressure Humidity
    00:00 +9°C° 0 mm 10 mps 747 mmHg 75%
    01:00 +9°C° 0 mm 10 mps 747 mmHg 74%
    02:00 +10°C° 0 mm 9 mps 747 mmHg 73%
    03:00 +10°C° 0 mm 9 mps 747 mmHg 72%
    04:00 +10°C° 0.2 mm 9 mps 746 mmHg 77%
    05:00 +8°C° 0.2 mm 9 mps 745 mmHg 83%
    06:00 +8°C° 0.2 mm 9 mps 744 mmHg 89%
    07:00 +9°C° 1 mm 11 mps 742 mmHg 88%
    08:00 +10°C° 1 mm 12 mps 740 mmHg 87%
    09:00 +12°C° 1 mm 14 mps 738 mmHg 86%
    10:00 +11°C° 0.1 mm 15 mps 739 mmHg 79%
    11:00 +10°C° 0.1 mm 16 mps 741 mmHg 72%
    12:00 +10°C° 0.1 mm 17 mps 742 mmHg 65%
    13:00 +10°C° 0.1 mm 16 mps 744 mmHg 62%
    14:00 +10°C° 0.1 mm 15 mps 745 mmHg 58%
    15:00 +10°C° 0.1 mm 14 mps 747 mmHg 55%
    16:00 +9°C° 0 mm 13 mps 747 mmHg 58%
    17:00 +9°C° 0 mm 12 mps 748 mmHg 61%
    18:00 +8°C° 0 mm 12 mps 748 mmHg 64%
    19:00 +8°C° 0.1 mm 11 mps 749 mmHg 66%
    20:00 +8°C° 0.1 mm 11 mps 749 mmHg 68%
    21:00 +7°C° 0.1 mm 10 mps 750 mmHg 70%
    22:00 +7°C° 0 mm 10 mps 750 mmHg 73%
    23:00 +7°C° 0 mm 10 mps 750 mmHg 75%

    Tomorrow, 20 September, Thursday

    Time Temperature Precipitation Wind Pressure Humidity
    00:00 +7°C° 0 mm 9 mps 751 mmHg 78%
    01:00 +7°C° 0 mm 9 mps 751 mmHg 79%
    02:00 +6°C° 0 mm 9 mps 751 mmHg 80%
    03:00 +6°C° 0 mm 9 mps 751 mmHg 82%
    04:00 +6°C° 0 mm 8 mps 751 mmHg 83%
    05:00 +6°C° 0 mm 8 mps 751 mmHg 83%
    06:00 +5°C° 0 mm 8 mps 752 mmHg 84%
    07:00 +7°C° 0 mm 8 mps 752 mmHg 80%
    08:00 +9°C° 0 mm 8 mps 752 mmHg 76%
    09:00 +10°C° 0 mm 8 mps 752 mmHg 72%
    10:00 +10°C° 0 mm 7 mps 752 mmHg 69%
    11:00 +11°C° 0 mm 7 mps 752 mmHg 67%
    12:00 +13°C° 0 mm 6 mps 752 mmHg 64%
    13:00 +13°C° 0 mm 5 mps 752 mmHg 64%
    14:00 +13°C° 0 mm 4 mps 751 mmHg 64%
    15:00 +13°C° 0 mm 4 mps 751 mmHg 64%
    16:00 +12°C° 0.3 mm 3 mps 750 mmHg 71%
    17:00 +12°C° 0.3 mm 2 mps 750 mmHg 79%
    18:00 +10°C° 0.3 mm 2 mps 750 mmHg 86%
    19:00 +9°C° 0.7 mm 2 mps 749 mmHg 89%
    20:00 +10°C° 0.7 mm 1 mps 748 mmHg 91%
    21:00 +9°C° 0.7 mm 1 mps 748 mmHg 93%
    22:00 +8°C° 0.6 mm 2 mps 748 mmHg 93%
    23:00 +7°C° 0.6 mm 3 mps 747 mmHg 93%

    Day after tomorrow, 21 September, Friday

    Time Temperature Precipitation Wind Pressure Humidity
    00:00 +7°C° 0.6 mm 3 mps 747 mmHg 93%
    01:00 +6°C° 0.2 mm 4 mps 747 mmHg 93%
    02:00 +6°C° 0.2 mm 5 mps 747 mmHg 92%
    03:00 +5°C° 0.2 mm 6 mps 747 mmHg 91%
    04:00 +5°C° 0.2 mm 7 mps 747 mmHg 91%
    05:00 +5°C° 0.2 mm 8 mps 747 mmHg 90%
    06:00 +5°C° 0.2 mm 8 mps 747 mmHg 89%
    07:00 +5°C° 1.1 mm 9 mps 747 mmHg 89%
    08:00 +6°C° 1.1 mm 10 mps 748 mmHg 88%
    09:00 +7°C° 1.1 mm 11 mps 748 mmHg 88%
    10:00 +8°C° 0.3 mm 11 mps 749 mmHg 84%
    11:00 +9°C° 0.3 mm 11 mps 749 mmHg 79%
    12:00 +11°C° 0.3 mm 11 mps 750 mmHg 75%
    13:00 +11°C° 0.2 mm 10 mps 751 mmHg 73%
    14:00 +11°C° 0.2 mm 10 mps 752 mmHg 70%
    15:00 +11°C° 0.2 mm 10 mps 753 mmHg 68%
    16:00 +9°C° 0.1 mm 10 mps 754 mmHg 70%
    17:00 +8°C° 0.1 mm 9 mps 754 mmHg 73%
    18:00 +7°C° 0.1 mm 8 mps 755 mmHg 76%
    19:00 +7°C° 0.1 mm 8 mps 756 mmHg 77%
    20:00 +6°C° 0.1 mm 8 mps 756 mmHg 78%
    21:00 +6°C° 0.1 mm 7 mps 757 mmHg 80%
    22:00 +5°C° 0.1 mm 7 mps 757 mmHg 80%
    23:00 +5°C° 0.1 mm 7 mps 758 mmHg 81%

    22 September, Saturday

    Time Temperature Precipitation Wind Pressure Humidity
    00:00 +5°C° 0.1 mm 7 mps 758 mmHg 82%
    01:00 +5°C° 0.1 mm 6 mps 759 mmHg 83%
    02:00 +5°C° 0.1 mm 6 mps 759 mmHg 85%
    03:00 +5°C° 0.1 mm 6 mps 759 mmHg 87%
    04:00 +5°C° 0.2 mm 6 mps 760 mmHg 88%
    05:00 +6°C° 0.2 mm 5 mps 760 mmHg 89%
    06:00 +5°C° 0.2 mm 5 mps 760 mmHg 91%
    07:00 +7°C° 0.1 mm 4 mps 760 mmHg 86%
    08:00 +8°C° 0.1 mm 4 mps 761 mmHg 82%
    09:00 +10°C° 0.1 mm 4 mps 761 mmHg 77%
    10:00 +11°C° 0 mm 3 mps 761 mmHg 73%
    11:00 +12°C° 0 mm 3 mps 761 mmHg 70%
    12:00 +13°C° 0 mm 3 mps 761 mmHg 66%
    13:00 +13°C° 0.1 mm 3 mps 761 mmHg 66%
    14:00 +13°C° 0.1 mm 2 mps 760 mmHg 66%
    15:00 +13°C° 0.1 mm 2 mps 760 mmHg 66%
    16:00 +12°C° 0.1 mm 2 mps 759 mmHg 72%
    17:00 +10°C° 0.1 mm 3 mps 758 mmHg 77%
    18:00 +10°C° 0.1 mm 3 mps 758 mmHg 82%
    19:00 +8°C° 0.7 mm 4 mps 756 mmHg 85%
    20:00 +7°C° 0.7 mm 5 mps 755 mmHg 88%
    21:00 +7°C° 0.7 mm 6 mps 754 mmHg 91%
    22:00 +5°C° 2.5 mm 7 mps 752 mmHg 92%
    23:00 +5°C° 2.5 mm 9 mps 750 mmHg 92%

    23 September, Sunday

    Time Temperature Precipitation Wind Pressure Humidity
    00:00 +5°C° 2.5 mm 10 mps 748 mmHg 93%
    01:00 +4°C° 2.5 mm 11 mps 747 mmHg 93%
    02:00 +4°C° 2.5 mm 12 mps 745 mmHg 93%
    03:00 +4°C° 2.5 mm 12 mps 743 mmHg 93%
    04:00 +4°C° 3.5 mm 13 mps 743 mmHg 92%
    05:00 +4°C° 3.5 mm 14 mps 743 mmHg 92%
    06:00 +5°C° 3.5 mm 15 mps 743 mmHg 91%
    07:00 +5°C° 1.1 mm 15 mps 746 mmHg 89%
    08:00 +5°C° 1.1 mm 14 mps 748 mmHg 87%
    09:00 +5°C° 1.1 mm 14 mps 750 mmHg 85%
    10:00 +6°C° 0 mm 14 mps 752 mmHg 78%
    11:00 +8°C° 0 mm 13 mps 754 mmHg 71%
    12:00 +9°C° 0 mm 13 mps 757 mmHg 64%
    13:00 +9°C° 0 mm 12 mps 758 mmHg 63%
    14:00 +9°C° 0 mm 12 mps 759 mmHg 63%
    15:00 +9°C° 0 mm 11 mps 760 mmHg 62%
    16:00 +8°C° 0 mm 11 mps 762 mmHg 64%
    17:00 +8°C° 0 mm 10 mps 763 mmHg 67%
    18:00 +7°C° 0 mm 10 mps 764 mmHg 69%
    19:00 +6°C° 0 mm 9 mps 765 mmHg 71%
    20:00 +6°C° 0 mm 8 mps 767 mmHg 73%
    21:00 +6°C° 0 mm 8 mps 768 mmHg 75%
    22:00 +5°C° 0 mm 7 mps 769 mmHg 78%
    23:00 +5°C° 0 mm 6 mps 770 mmHg 80%

    24 September, Monday

    Time Temperature Precipitation Wind Pressure Humidity
    00:00 +5°C° 0 mm 6 mps 770 mmHg 83%
    01:00 +5°C° 0 mm 5 mps 771 mmHg 84%
    02:00 +5°C° 0 mm 5 mps 771 mmHg 85%
    03:00 +5°C° 0 mm 4 mps 772 mmHg 87%
    04:00 +5°C° 0 mm 4 mps 772 mmHg 87%
    05:00 +5°C° 0 mm 4 mps 772 mmHg 87%
    06:00 +5°C° 0 mm 4 mps 773 mmHg 88%
    07:00 +6°C° 0 mm 4 mps 773 mmHg 83%
    08:00 +7°C° 0 mm 4 mps 774 mmHg 79%
    09:00 +10°C° 0 mm 3 mps 774 mmHg 74%
    10:00 +11°C° 0 mm 4 mps 774 mmHg 71%
    11:00 +11°C° 0 mm 4 mps 774 mmHg 68%
    12:00 +12°C° 0 mm 4 mps 774 mmHg 65%
    13:00 +12°C° 0 mm 4 mps 774 mmHg 66%
    14:00 +12°C° 0 mm 4 mps 774 mmHg 67%
    15:00 +12°C° 0 mm 4 mps 774 mmHg 68%
    16:00 +11°C° 0 mm 4 mps 774 mmHg 72%
    17:00 +10°C° 0 mm 4 mps 773 mmHg 76%
    18:00 +8°C° 0 mm 4 mps 773 mmHg 80%
    19:00 +8°C° 0 mm 4 mps 773 mmHg 81%
    20:00 +8°C° 0 mm 4 mps 773 mmHg 82%
    21:00 +8°C° 0 mm 4 mps 773 mmHg 83%
    22:00 +8°C° 0 mm 5 mps 772 mmHg 83%
    23:00 +8°C° 0 mm 5 mps 771 mmHg 83%
    Show more